Location: Ocean City
(38.3360°N, 75.0850°W)
Time: 22:24:59
(UTC-05:00)

Explorer 11/Cluster Stage 4 - Pass Details

Date: 16 November 2019
Orbit: 467 x 1259 km, 28.8° (Epoch: 12 December)

Event Time Altitude Azimuth Distance (km) Brightness Sun altitude
Rises 20:27:15 0° 228° (SW) 3,393 10.2 -43.1°
Enters shadow 20:28:50 - 222° (SW) 2,907 9.8 -43.4°
Reaches altitude 10° 20:29:58 10° 216° (SW) 2,591 - -43.6°
Maximum altitude 20:35:15 27° 160° (SSE) 1,846 - -44.6°
Drops below altitude 10° 20:41:22 10° 106° (ESE) 3,040 - -45.8°
Sets 20:44:50 0° 96° (E) 4,094 - -46.4°
